Regional Weather Roundup
Issued by NWS

Home | Current Version | Previous Version | Text Only | Print | Product List | Glossary On
Versions: 1 2 3 4 5 6 7 8 9 10 11 12 13 14 15 16 17 18 19 20 21 22 23 24 25 26 27 28 29 30 31 32 33 34 35 36 37 38 39 40 41 42 43 44 45 46 47 48 49 50
577
ASUS43 KLMK 211302
RWRKY
KENTUCKY REGIONAL WEATHER ROUNDUP
NATIONAL WEATHER SERVICE LOUISVILLE KY
900 AM EDT SAT OCT 21 2017

NOTE "FAIR" INDICATES FEW OR NO CLOUDS BELOW 12,000 FEET
WITH NO SIGNIFICANT WEATHER AND/OR OBSTRUCTIONS TO VISIBILITY.

KYZ001>023-026-027-061>063-070>075-211400-
WESTERN AND SOUTH CENTRAL KENTUCKY

CITY           SKY/WX    TMP DP  RH WIND       PRES   REMARKS
PADUCAH        CLOUDY    60  47  61 S6        30.14R
HENDERSON      CLOUDY    56  48  74 SE3       30.18R
OWENSBORO      PTCLDY    56  49  77 SE6       30.20R
HOPKINSVILLE   SUNNY     55  48  77 SE6       30.19R
BOWLING GREEN  CLOUDY    49  48  97 CALM      30.24R
GLASGOW        CLOUDY    55  49  82 CALM      30.24R
$$

KYZ024-025-028>034-038-045-046-053-211400-
NORTH CENTRAL KENTUCKY

CITY           SKY/WX    TMP DP  RH WIND       PRES   REMARKS
LOUISVILLE/SDF PTSUNNY   55  51  86 SE7       30.23R
LOUISVILLE/LOU MOSUNNY   53  51  93 CALM      30.23R
FORT KNOX      MOSUNNY   49  48  97 CALM      30.21R
$$

KYZ035>037-039>044-047>052-055>060-089>105-211400-
NORTHEAST KENTUCKY

CITY           SKY/WX    TMP DP  RH WIND       PRES   REMARKS
LEXINGTON      MOSUNNY   55  49  80 S6        30.26R
COVINGTON      CLOUDY    53  52  96 S7        30.23R
FRANKFORT      CLOUDY    50  46  86 CALM      30.25R
$$

KYZ054-064>069-076>088-106>120-211400-
SOUTHEAST KENTUCKY

CITY           SKY/WX    TMP DP  RH WIND       PRES   REMARKS
JACKSON        MOSUNNY   57  50  77 CALM      30.29R
LONDON         MOSUNNY   49  46  90 CALM      30.29R
SOMERSET       MOSUNNY   46  46 100 CALM      30.30R
MIDDLESBORO    FOG       45  45 100 CALM      30.33R VSB<1/4
MONTICELLO     MOSUNNY   50  48  93 NE8       30.30R
$$





USA.gov is the U.S. government's official web portal to all federal, state and local government web resources and services.